Location: Unspecified
(0.0000°N, 0.0000°E)
Time: 01:00:36
(UTC+00:00)

STARLINK-1281 - Pass Details

Date: 14 December 2025
Orbit: 546 x 548 km, 53.1° (Epoch: 16 January)

Event Time Altitude Azimuth Distance (km) Brightness Sun altitude
Rises 18:38:23 0° 332° (NNW) 2,698 7.2 -10.0°
Reaches altitude 10° 18:40:38 10° 335° (NNW) 1,808 6.3 -10.5°
Maximum altitude 18:44:41 62° 56° (NE) 614 3.6 -11.4°
Drops below altitude 10° 18:48:46 10° 137° (SE) 1,815 6.1 -12.4°
Sets 18:51:01 0° 140° (SE) 2,709 7.0 -12.9°
